Powrót do katalogu

CZ-4C R/B

AktywnySSO
NORAD 38355·ROCKET BODY·🇨🇳 China

Wystrzelony May 29, 2012 z Taiyuan Satellite Launch Center

Loading…

Następne Przeloty (najbliższe 24 godziny)

TLE

ŚwieżeSource: Space-Track

Epoka: Sep 14, 2026, 15:39 UTC

1 38355U 12029B   26257.65236420 -.00000011  00000-0  53046-4 0  9993
2 38355  99.8437 145.7928 0161213 286.1372  72.2067 13.46279806702497

Śledź CZ-4C R/B w czasie rzeczywistym z AllMySat

Download on the App Store